Погода в Ургакше

Россия / Республика Марий Эл     56°44′59″N   48°25′59″E
темп.,
°C
ветер,
м/с
пор.,
м/с
влажн.,
%
обл.,
%
осадки,
мм/ч
давл.,
гПа
погр.,
м
20 апреля, вт
вт2000:00−1в412580 0.0 1032279
03:00−1в412550 0.0 1033273
06:000в511500 0.0 1033327
09:00+6вюв58390 0.0 1032936
12:00+8юв68320 0.0 10311453
15:00+9юв68290 0.0 10301499
18:00+6юв49400 0.0 1030312
21:00+3вюв514485 0.0 1028347
21 апреля, ср
ср2100:00+2юв6155020 0.0 1027428
03:00+3юв71750100 0.0 1026584
06:00+3юв81848100 0.0 1024746
09:00+4юв91746100 0.0 1023912
12:00+5юв91750100 0.1 10221021
15:00+2ююв91987100 3.3 1021880
18:00+1ююв81797100 4.4 1020815
21:00+1ююв81797100 7.3 1020710
22 апреля, чт
чт2200:00+1ююв71597100 0.4 1019705
03:00+2ююв61498100 0.5 1020485
06:00+2ю61298100 0.0 1021413
09:00+4ю51097100 0.1 1022407
12:00+4ююв4997100 0.1 1022344
15:00+7ююв5989100 0.1 1022676
18:00+6ююв4995100 1.0 1022372
21:00+6ююв6139447 1.4 1023401
23 апреля, пт
пт2300:00+5ю4109761 0.1 1022317
03:00+4ююз359959 0.1 1024119
06:00+4ю249851 0.0 1024132
09:00+9ююз34764 0.0 1025655
12:00+12ююз33576 0.0 10241254
15:00+14ю225246 0.0 10241426
18:00+10юв46733 0.0 1024227
21:00+6юв49875 0.0 1024194
24 апреля, сб
сб2400:00+5вюв3791100 0.0 1023127
03:00+4вюв3892100 0.0 1022165
06:00+5вюв4990100 0.0 1021292
09:00+9вюв5770100 0.0 1019759
12:00+11в5562100 0.0 10171231
15:00+11в5661100 0.0 10151350
18:00+8в4778100 0.0 1014485
21:00+7вюв2591100 0.1 1013241